N1IJV-10 Weather Reports


time (UTC)temp
C
wind
direction
speed
KPH
gust
KPH
rain 1hr
cm
rain 24hr
cm
rain mn
cm
humidity
%
barometer
mb
20260903180722 30 138 3.2 3.2 0.00 0.00 0.00 72 1011.6
20260903180215 30 139 1.6 8.0 0.00 0.00 0.00 73 1011.8
20260903175715 30 134 1.6 3.2 0.00 0.00 0.00 73 1011.6
20260903175209 29 131 6.4 11.3 0.00 0.00 0.00 73 1011.8
20260903174709 28 134 4.8 4.8 0.00 0.00 0.00 75 1011.7
20260903174204 29 114 4.8 8.0 0.00 0.00 0.00 74 1011.7
20260903173659 30 137 1.6 4.8 0.00 0.00 0.00 73 1011.9
20260903173155 29 124 4.8 8.0 0.00 0.00 0.00 72 1011.9
20260903172649 29 142 3.2 4.8 0.00 0.00 0.00 72 1012.1
20260903172145 29 136 1.6 8.0 0.00 0.00 0.00 72 1012.1
20260903171644 29 141 1.6 3.2 0.00 0.00 0.00 73 1012.2
20260903171141 30 145 1.6 4.8 0.00 0.00 0.00 72 1011.9
20260903170639 29 141 3.2 4.8 0.00 0.00 0.00 74 1012.2
20260903170135 30 137 1.6 4.8 0.00 0.00 0.00 70 1012.2
20260903165633 30 160 1.6 8.0 0.00 0.00 0.00 73 1012.3
20260903165128 30 139 3.2 3.2 0.00 0.00 0.00 71 1012.3
20260903164622 29 135 3.2 8.0 0.00 0.00 0.00 71 1012.3
20260903164118 30 134 4.8 4.8 0.00 0.00 0.00 69 1011.9
20260903163613 30 157 3.2 3.2 0.00 0.00 0.00 70 1012.3
20260903163109 30 146 0.0 8.0 0.00 0.00 0.00 72 1012.2
20260903162605 30 142 1.6 4.8 0.00 0.00 0.00 74 1012.2
20260903162101 30 134 4.8 8.0 0.00 0.00 0.00 72 1012.1
20260903161556 30 158 3.2 11.3 0.00 0.00 0.00 73 1012.3
20260903161052 29 152 1.6 8.0 0.00 0.00 0.00 74 1012.3
20260903160550 29 150 3.2 8.0 0.00 0.00 0.00 76 1011.9
20260903160045 29 154 4.8 4.8 0.00 0.00 0.00 77 1011.9
20260903155544 30 151 6.4 9.7 0.00 0.00 0.00 77 1011.6
20260903155040 30 150 1.6 3.2 0.00 0.00 0.00 77 1011.5
20260903154536 30 152 3.2 3.2 0.00 0.00 0.00 75 1011.3
20260903154032 31 155 0.0 3.2 0.00 0.00 0.00 73 1011.0
20260903153527 31 162 3.2 3.2 0.00 0.00 0.00 69 1011.0
20260903153023 31 158 3.2 3.2 0.00 0.00 0.00 69 1010.9
20260903152518 31 150 1.6 4.8 0.00 0.00 0.00 71 1010.9
20260903152015 31 153 1.6 4.8 0.00 0.00 0.00 70 1011.0
20260903151513 31 151 1.6 3.2 0.00 0.00 0.00 71 1010.8
20260903151009 31 149 1.6 4.8 0.00 0.00 0.00 71 1011.0
20260903150503 31 153 1.6 4.8 0.00 0.00 0.00 73 1010.9
20260903145958 31 151 3.2 4.8 0.00 0.00 0.00 72 1011.0
20260903145453 30 152 1.6 3.2 0.00 0.00 0.00 72 1010.7
20260903144948 30 152 1.6 8.0 0.00 0.00 0.00 73 1011.0
20260903144447 30 151 6.4 8.0 0.00 0.00 0.00 72 1010.9
20260903143943 30 198 4.8 8.0 0.00 0.00 0.00 73 1010.8
20260903143440 30 151 1.6 4.8 0.00 0.00 0.00 76 1010.6
20260903142935 29 154 1.6 11.3 0.00 0.00 0.00 76 1010.9
20260903142431 29 149 0.0 3.2 0.00 0.00 0.00 76 1011.1
20260903141927 29 145 6.4 8.0 0.00 0.00 0.00 76 1010.9
20260903141422 29 147 1.6 4.8 0.00 0.00 0.00 76 1010.5
20260903140918 28 161 3.2 8.0 0.00 0.00 0.00 76 1010.5
20260903140413 28 150 3.2 3.2 0.00 0.00 0.00 77 1010.8
20260903135908 28 150 0.0 4.8 0.00 0.00 0.00 79 1010.7
20260903135404 28 147 1.6 3.2 0.00 0.00 0.00 79 1010.7
20260903134903 27 145 1.6 3.2 0.00 0.00 0.00 81 1010.7
20260903134357 27 146 1.6 4.8 0.00 0.00 0.00 81 1010.6
20260903133855 27 142 3.2 8.0 0.00 0.00 0.00 81 1010.5
20260903133346 27 143 1.6 3.2 0.00 0.00 0.00 82 1010.8
20260903132845 27 149 4.8 4.8 0.00 0.00 0.00 82 1010.8
20260903132342 26 141 1.6 3.2 0.00 0.00 0.00 83 1010.8
20260903131835 26 134 1.6 11.3 0.00 0.00 0.00 83 1011.0
20260903131330 26 135 1.6 4.8 0.00 0.00 0.00 85 1010.7
20260903130829 26 136 1.6 3.2 0.00 0.00 0.00 85 1010.9
20260903130325 26 138 3.2 3.2 0.00 0.00 0.00 85 1010.8
20260903125823 26 136 1.6 3.2 0.00 0.00 0.00 85 1011.1
20260903125319 26 134 1.6 3.2 0.00 0.00 0.00 85 1010.9
20260903124818 26 136 1.6 1.6 0.00 0.00 0.00 85 1011.2
20260903124313 26 136 1.6 3.2 0.00 0.00 0.00 85 1011.1
20260903123812 26 136 1.6 3.2 0.00 0.00 0.00 86 1011.1
20260903123312 25 135 0.0 3.2 0.00 0.00 0.00 86 1011.2
20260903122809 25 135 1.6 1.6 0.00 0.00 0.00 87 1011.1
20260903122306 25 135 1.6 3.2 0.00 0.00 0.00 87 1011.0
20260903121802 25 137 0.0 1.6 0.00 0.00 0.00 88 1011.1
20260903121259 25 136 0.0 0.0 0.00 0.00 0.00 87 1011.0
20260903120754 25 134 0.0 1.6 0.00 0.00 0.00 88 1011.2
20260903120248 25 136 0.0 0.0 0.00 0.00 0.00 88 1011.2
20260903115746 25 136 1.6 1.6 0.00 0.00 0.00 88 1011.1
20260903115242 25 136 0.0 0.0 0.00 0.00 0.00 88 1011.1
20260903114736 25 135 0.0 0.0 0.00 0.00 0.00 88 1011.0
20260903114232 25 136 0.0 1.6 0.00 0.00 0.00 87 1010.9
20260903113727 25 137 0.0 0.0 0.00 0.00 0.00 87 1010.9
20260903113223 25 135 1.6 1.6 0.00 0.00 0.00 87 1010.6
20260903112719 25 137 1.6 3.2 0.00 0.00 0.00 87 1010.7
20260903112215 25 136 0.0 0.0 0.00 0.00 0.00 87 1010.6
20260903111713 25 136 0.0 3.2 0.00 0.00 0.00 87 1010.9
20260903111209 25 137 0.0 1.6 0.00 0.00 0.00 88 1010.8
20260903110704 25 136 0.0 1.6 0.00 0.00 0.00 88 1010.9
20260903110200 25 135 1.6 3.2 0.00 0.00 0.00 88 1010.8
20260903105654 25 134 0.0 1.6 0.00 0.00 0.00 89 1010.7
20260903105149 25 135 0.0 0.0 0.00 0.00 0.00 89 1010.8
20260903104649 25 136 0.0 0.0 0.00 0.00 0.00 89 1010.9
20260903104144 25 136 0.0 1.6 0.00 0.00 0.00 89 1010.9
20260903103639 25 137 0.0 0.0 0.00 0.00 0.00 89 1010.9
20260903103136 25 135 0.0 1.6 0.00 0.00 0.00 89 1010.7
20260903102631 25 135 0.0 1.6 0.00 0.00 0.00 90 1010.7
20260903102130 25 134 0.0 1.6 0.00 0.00 0.00 90 1010.7
20260903101624 25 135 0.0 0.0 0.00 0.00 0.00 91 1010.6
20260903101119 25 135 0.0 0.0 0.00 0.00 0.00 91 1010.9
20260903100614 25 136 0.0 0.0 0.00 0.00 0.00 91 1010.9
20260903100114 25 136 1.6 1.6 0.00 0.00 0.00 91 1010.8
20260903095611 25 135 0.0 1.6 0.00 0.00 0.00 91 1010.8
20260903095111 25 135 1.6 1.6 0.00 0.00 0.00 91 1010.8
20260903094606 25 136 1.6 1.6 0.00 0.00 0.00 92 1010.8
20260903094101 25 136 0.0 1.6 0.00 0.00 0.00 92 1010.6
20260903093556 24 136 0.0 0.0 0.00 0.00 0.00 93 1010.7
20260903093052 24 136 0.0 0.0 0.00 0.00 0.00 94 1010.6
20260903092551 24 136 0.0 1.6 0.00 0.00 0.00 94 1010.6
20260903092046 24 137 0.0 0.0 0.00 0.00 0.00 94 1010.6
20260903091544 24 136 0.0 0.0 0.00 0.00 0.00 95 1010.5
20260903091039 24 137 0.0 0.0 0.00 0.00 0.00 95 1010.6
20260903090535 24 138 0.0 0.0 0.00 0.00 0.00 95 1010.6
20260903090034 24 138 0.0 0.0 0.00 0.00 0.00 95 1010.5
20260903085532 25 137 0.0 0.0 0.00 0.00 0.00 95 1010.5
20260903085028 25 137 0.0 0.0 0.00 0.00 0.00 95 1010.3
20260903084526 25 137 0.0 0.0 0.00 0.00 0.00 95 1010.4
20260903084021 25 137 0.0 0.0 0.00 0.00 0.00 95 1010.5
20260903083517 25 137 0.0 0.0 0.00 0.00 0.00 95 1010.3
20260903083016 25 137 0.0 0.0 0.00 0.00 0.00 95 1010.4
20260903082511 25 137 0.0 0.0 0.00 0.00 0.00 95 1010.6
20260903082006 25 138 0.0 0.0 0.00 0.00 0.00 95 1010.5
20260903081501 25 136 0.0 0.0 0.00 0.00 0.00 95 1010.5
20260903080957 25 137 0.0 0.0 0.00 0.00 0.00 95 1010.5
20260903080453 25 137 0.0 0.0 0.00 0.00 0.00 95 1010.5
20260903062722 25 136 0.0 0.0 0.00 0.00 0.00 92 1010.7
20260903062221 25 136 0.0 0.0 0.00 0.00 0.00 92 1010.7
20260903061718 25 135 0.0 0.0 0.00 0.00 0.00 92 1010.6
20260903061216 25 137 0.0 0.0 0.00 0.00 0.00 92 1010.8
20260903060711 25 137 0.0 0.0 0.00 0.00 0.00 92 1010.5
20260903060206 25 137 0.0 0.0 0.00 0.00 0.00 92 1010.7
20260903055704 25 137 0.0 0.0 0.00 0.00 0.00 92 1010.6
20260903055202 25 136 0.0 1.6 0.00 0.00 0.00 92 1010.7
20260903054657 25 137 0.0 0.0 0.00 0.00 0.00 93 1010.7
20260903054153 25 136 0.0 0.0 0.00 0.00 0.00 92 1010.9
20260903053649 25 136 0.0 0.0 0.00 0.00 0.00 92 1010.9
20260903053144 25 137 0.0 0.0 0.00 0.00 0.00 92 1010.6
20260903052640 25 137 0.0 0.0 0.00 0.00 0.00 91 1010.7
20260903052135 25 137 0.0 0.0 0.00 0.00 0.00 91 1010.5
20260903051630 26 137 0.0 0.0 0.00 0.00 0.00 90 1010.5
20260903051126 26 136 0.0 0.0 0.00 0.00 0.00 90 1010.5
20260903050626 26 137 0.0 0.0 0.00 0.00 0.00 89 1010.5
20260903050120 26 137 0.0 0.0 0.00 0.00 0.00 89 1010.4
20260903045620 26 136 0.0 0.0 0.00 0.00 0.00 88 1010.4
20260903045117 26 136 0.0 1.6 0.00 0.00 0.00 89 1010.5
20260903044612 26 136 0.0 0.0 0.00 0.00 0.00 90 1010.4
20260903044108 25 137 0.0 0.0 0.00 0.00 0.00 91 1010.5
20260903043604 25 137 0.0 0.0 0.00 0.00 0.00 92 1010.3
20260903043103 25 136 0.0 0.0 0.00 0.00 0.00 92 1010.3
20260903042557 25 136 0.0 0.0 0.00 0.00 0.00 92 1010.4
20260903042053 25 137 0.0 0.0 0.00 0.00 0.00 92 1010.4
20260903041550 26 136 0.0 0.0 0.00 0.00 0.00 91 1010.6
20260903041044 26 137 0.0 0.0 0.00 0.00 0.00 91 1010.6
20260903040543 26 137 0.0 0.0 0.00 0.00 0.00 90 1010.5
20260903040041 26 137 0.0 0.0 0.00 0.00 0.00 89 1010.5
20260903035541 26 137 0.0 0.0 0.00 0.00 0.00 89 1010.5
20260903035037 26 137 0.0 0.0 0.00 0.00 0.00 89 1010.5
20260903034531 27 137 0.0 0.0 0.00 0.00 0.00 88 1010.5
20260903034027 27 137 0.0 0.0 0.00 0.00 0.00 87 1010.4
20260903033521 27 137 0.0 0.0 0.00 0.00 0.00 86 1010.4
20260903033017 27 137 0.0 0.0 0.00 0.00 0.00 86 1010.4
20260903032512 27 137 0.0 0.0 0.00 0.00 0.00 85 1010.4
20260903032007 27 137 1.6 1.6 0.00 0.00 0.00 85 1010.2
20260903031507 28 138 0.0 1.6 0.00 0.00 0.00 83 1010.2
20260903031002 28 139 1.6 1.6 0.00 0.00 0.00 83 1010.2
20260903030458 28 141 1.6 4.8 0.00 0.00 0.00 82 1010.1
20260903025953 28 140 1.6 4.8 0.00 0.00 0.00 82 1010.4
20260903025449 28 140 0.0 0.0 0.00 0.00 0.00 83 1010.3
20260903024944 28 140 0.0 1.6 0.00 0.00 0.00 83 1010.4
20260903024443 28 140 0.0 1.6 0.00 0.00 0.00 82 1010.2
20260903023938 28 140 1.6 3.2 0.00 0.00 0.00 81 1010.4
20260903023434 29 142 1.6 4.8 0.00 0.00 0.00 80 1010.2
20260903022929 29 142 3.2 4.8 0.00 0.00 0.00 79 1010.1
20260903022428 29 140 1.6 4.8 0.00 0.00 0.00 80 1010.3
20260903021926 29 143 4.8 4.8 0.00 0.00 0.00 79 1010.1
20260903021422 29 147 4.8 9.7 0.00 0.00 0.00 79 1010.0
20260903020917 29 141 4.8 9.7 0.00 0.00 0.00 80 1010.3
20260903020412 29 147 4.8 9.7 0.00 0.00 0.00 80 1009.9
20260903015907 29 145 1.6 4.8 0.00 0.00 0.00 80 1010.0
20260903015403 29 138 1.6 3.2 0.00 0.00 0.00 80 1010.0
20260903014857 30 138 4.8 8.0 0.00 0.00 0.00 79 1010.0
20260903014351 30 138 3.2 8.0 0.00 0.00 0.00 78 1009.8
20260903013846 30 138 1.6 4.8 0.00 0.00 0.00 78 1010.0
20260903013346 30 139 1.6 3.2 0.00 0.00 0.00 78 1009.7
20260903012846 30 138 1.6 8.0 0.00 0.00 0.00 78 1009.7
20260903012340 30 138 4.8 9.7 0.00 0.00 0.00 78 1009.7
20260903011839 30 139 3.2 3.2 0.00 0.00 0.00 78 1009.5
20260903011338 30 138 3.2 9.7 0.00 0.00 0.00 78 1009.4
20260903010834 30 138 3.2 4.8 0.00 0.00 0.00 77 1009.4
20260903010329 30 140 4.8 8.0 0.00 0.00 0.00 77 1009.4
20260903005827 30 139 3.2 3.2 0.00 0.00 0.00 77 1009.4
20260903005323 30 138 4.8 4.8 0.00 0.00 0.00 76 1009.3
20260903004819 30 140 1.6 8.0 0.00 0.00 0.00 75 1009.4
20260903004314 30 138 3.2 4.8 0.00 0.00 0.00 75 1009.4
20260903003809 31 139 1.6 4.8 0.00 0.00 0.00 74 1009.4
20260903003304 31 141 4.8 8.0 0.00 0.00 0.00 73 1009.4
20260903002759 31 139 1.6 8.0 0.00 0.00 0.00 72 1009.1
20260903002258 31 141 6.4 9.7 0.00 0.00 0.00 72 1009.4
20260903001753 31 141 3.2 11.3 0.00 0.00 0.00 72 1009.5
20260903001248 31 141 4.8 11.3 0.00 0.00 0.00 72 1009.3
20260903000743 31 139 4.8 14.5 0.00 0.00 0.00 72 1009.6
20260903000237 31 140 6.4 9.7 0.00 0.00 0.00 73 1009.3
20260902235736 31 139 1.6 4.8 0.00 0.00 0.00 74 1009.6
20260902235231 31 139 3.2 3.2 0.00 0.00 0.00 73 1009.6
20260902234731 31 140 1.6 3.2 0.00 0.00 0.00 72 1009.7
20260902234230 31 139 1.6 1.6 0.00 0.00 0.00 72 1009.6
20260902233730 31 140 1.6 3.2 0.00 0.00 0.00 71 1009.6
20260902233224 31 138 1.6 3.2 0.00 0.00 0.00 71 1009.6
20260902232722 31 138 0.0 3.2 0.00 0.00 0.00 71 1009.4
20260902232217 32 138 1.6 3.2 0.00 0.00 0.00 70 1009.7
20260902231711 32 141 3.2 8.0 0.00 0.00 0.00 68 1009.6
20260902231206 32 140 4.8 8.0 0.00 0.00 0.00 68 1009.5
20260902230702 32 136 4.8 9.7 0.00 0.00 0.00 69 1009.5
20260902230200 32 139 3.2 11.3 0.00 0.00 0.00 67 1009.6
20260902225655 32 141 3.2 8.0 0.00 0.00 0.00 69 1009.7
20260902225155 32 138 4.8 4.8 0.00 0.00 0.00 67 1009.5
20260902224653 32 139 1.6 4.8 0.00 0.00 0.00 67 1009.8
20260902224149 32 137 3.2 8.0 0.00 0.00 0.00 66 1009.6
20260902223645 32 140 4.8 8.0 0.00 0.00 0.00 67 1009.8
20260902223145 32 140 8.0 9.7 0.00 0.00 0.00 65 1009.8
20260902222644 32 139 3.2 4.8 0.00 0.00 0.00 65 1009.8
20260902222142 33 140 3.2 4.8 0.00 0.00 0.00 65 1009.9
20260902221636 33 142 3.2 8.0 0.00 0.00 0.00 65 1009.8
20260902221126 33 139 3.2 8.0 0.00 0.00 0.00 63 1009.8
20260902220622 33 139 3.2 3.2 0.00 0.00 0.00 62 1009.9
20260902220122 34 142 6.4 8.0 0.00 0.00 0.00 61 1009.7
20260902215618 34 141 1.6 4.8 0.00 0.00 0.00 60 1009.7
20260902215113 35 139 3.2 11.3 0.00 0.00 0.00 59 1010.0
20260902214608 35 140 8.0 9.7 0.00 0.00 0.00 59 1009.7
20260902214106 35 141 0.0 4.8 0.00 0.00 0.00 60 1009.8
20260902213603 35 141 1.6 3.2 0.00 0.00 0.00 60 1009.9
20260902213102 35 140 1.6 4.8 0.00 0.00 0.00 59 1009.9
20260902212557 35 148 4.8 11.3 0.00 0.00 0.00 60 1009.7
20260902212053 35 137 6.4 8.0 0.00 0.00 0.00 59 1010.0
20260902211549 35 140 3.2 4.8 0.00 0.00 0.00 62 1009.8
20260902211044 35 141 4.8 4.8 0.00 0.00 0.00 59 1010.0
20260902210538 35 139 4.8 4.8 0.00 0.00 0.00 60 1009.9
20260902210038 35 141 3.2 3.2 0.00 0.00 0.00 56 1010.0
20260902205537 35 140 3.2 9.7 0.00 0.00 0.00 58 1010.1
20260902205033 35 138 3.2 11.3 0.00 0.00 0.00 58 1010.0
20260902204533 35 142 3.2 4.8 0.00 0.00 0.00 59 1010.0
20260902204027 35 140 3.2 4.8 0.00 0.00 0.00 59 1010.0
20260902203523 35 139 1.6 12.9 0.00 0.00 0.00 58 1010.2
20260902203022 35 141 1.6 12.9 0.00 0.00 0.00 59 1010.2
20260902202518 35 141 1.6 3.2 0.00 0.00 0.00 59 1010.0
20260902202014 35 141 0.0 4.8 0.00 0.00 0.00 60 1010.0
20260902201510 35 138 3.2 8.0 0.00 0.00 0.00 59 1010.1
20260902201004 35 140 3.2 4.8 0.00 0.00 0.00 60 1010.1
20260902200459 34 137 4.8 9.7 0.00 0.00 0.00 60 1010.4
20260902195955 35 139 1.6 11.3 0.00 0.00 0.00 62 1010.4
20260902195450 35 139 4.8 9.7 0.00 0.00 0.00 59 1010.3
20260902194949 35 141 1.6 4.8 0.00 0.00 0.00 58 1010.3
20260902194449 35 137 3.2 8.0 0.00 0.00 0.00 59 1010.5
20260902193944 34 140 3.2 4.8 0.00 0.00 0.00 65 1010.3
20260902193440 34 139 1.6 3.2 0.00 0.00 0.00 62 1010.4
20260902192938 35 139 6.4 12.9 0.00 0.00 0.00 59 1010.6
20260902192438 35 140 6.4 11.3 0.00 0.00 0.00 59 1010.5
20260902191936 35 140 4.8 4.8 0.00 0.00 0.00 60 1010.7
20260902191432 35 139 1.6 8.0 0.00 0.00 0.00 59 1010.5
20260902190928 35 138 4.8 9.7 0.00 0.00 0.00 58 1010.9
20260902190423 35 139 1.6 4.8 0.00 0.00 0.00 59 1010.7
20260902185918 35 137 3.2 8.0 0.00 0.00 0.00 58 1010.6
20260902185414 35 139 3.2 9.7 0.00 0.00 0.00 61 1010.9
20260902184909 34 139 4.8 9.7 0.00 0.00 0.00 61 1010.5
20260902184404 34 135 3.2 9.7 0.00 0.00 0.00 60 1010.7
20260902183900 33 138 3.2 4.8 0.00 0.00 0.00 63 1010.7
20260902183356 33 139 3.2 11.3 0.00 0.00 0.00 62 1010.8
20260902182852 34 137 6.4 11.3 0.00 0.00 0.00 60 1010.6
20260902182348 35 139 6.4 11.3 0.00 0.00 0.00 59 1010.8
20260902181844 34 138 1.6 4.8 0.00 0.00 0.00 62 1010.9
20260902181339 34 138 8.0 11.3 0.00 0.00 0.00 58 1010.8
20260902180833 34 138 3.2 4.8 0.00 0.00 0.00 62 1011.1